Sac River (Missouri), Route J (06919020)

StateMissouriLatestPoor (228 cfs)
RiverSac RiverRatingObservedEstimated
Updated2020-08-06 9:45 (56 minutes ago)Flood - The river is flooding. Obstacles can be treacherous or deadly. The river should be avoided at this stage for casual trips and definitely for the inexperienced. Trips should be attempted only with protective gear and equipment.Flood(none)4493
Discharge228 cfs (median: 950 cfs)High - The river is high and potentially dangerous, especially for the young and / or inexperienced. Normal stream obstacles are sometimes difficult to navigate. Extended distances can be attempted, but canoe travel may not be advisable.High(none)1358
Height6.52 feetGood - Conditions are ideal for a canoe or kayak. Boats typically will drag on fewer than one-quarter of riffles, if at all, and portages are unnecessary or rare. Normal float lengths can be attempted without a problem.Good(none)1067
TrendFalling (falling over 24 hours)Low - River is low but can still be floated. Some riffles are okay but most come with significant dragging and might need a portage. Float lengths should be reduced to accommodate low flow, dragging, and portages.Low(none)931
USGSExternal icon USGS Site (External icon Google Maps)Poor - River is too low to float comfortably. Most or all riffles will drag or must be portaged and some obstacles (such as slick shelf rock) cause undue problems. Avoid the river at this stage for casual paddling trips.Poor(none)61

Trending Data

Plot Image

Trips for Sac River (Missouri), Route J (06919020)

DateStartEndDistanceConditionDischargeHeightFishingDetails

A total of 0 rows are displayed.

Condition Descriptions

Fishing Conditions

Fish Species

Notes

Classic Trip List

The classic River Trips application is still available for use. It is updated with the new system using a data retrofit. It is no longer maintained. The original River Trips application is no longer updated (as of 1 Dec 2016) but can be checked for errors or for the condition of the data before it was converted to the new system.

Gauge Data Table

ObservationHeightDischargeMaximum
Discharge
Minimum
Discharge
Mean
Discharge
P05P10P20P25P50
(Median)
P75P80P90P95
2020-08-06 09:45 6.52 228 6060 (2019) 44 (2014) 1350 63 67 91 156 950 1910 2160 3600 4850
2020-08-06 08:45 6.61 249 6060 (2019) 44 (2014) 1350 63 67 91 156 950 1910 2160 3600 4850
2020-08-06 07:45 6.73 279 6060 (2019) 44 (2014) 1350 63 67 91 156 950 1910 2160 3600 4850
2020-08-06 06:45 6.89 322 6060 (2019) 44 (2014) 1350 63 67 91 156 950 1910 2160 3600 4850
2020-08-06 05:45 7.11 375 6060 (2019) 44 (2014) 1350 63 67 91 156 950 1910 2160 3600 4850
2020-08-06 04:45 7.40 450 6060 (2019) 44 (2014) 1350 63 67 91 156 950 1910 2160 3600 4850
2020-08-06 03:45 7.77 553 6060 (2019) 44 (2014) 1350 63 67 91 156 950 1910 2160 3600 4850
2020-08-06 02:45 8.24 697 6060 (2019) 44 (2014) 1350 63 67 91 156 950 1910 2160 3600 4850
2020-08-06 01:45 8.81 888 6060 (2019) 44 (2014) 1350 63 67 91 156 950 1910 2160 3600 4850
2020-08-06 00:45 9.48 1140 6060 (2019) 44 (2014) 1350 63 67 91 156 950 1910 2160 3600 4850
2020-08-05 23:45 10.27 1470 6050 (2019) 41 (2014) 1280 63 70 92 132 672 1750 1880 4340 5480
2020-08-05 22:45 11.18 1890 6050 (2019) 41 (2014) 1280 63 70 92 132 672 1750 1880 4340 5480
2020-08-05 21:45 12.23 2470 6050 (2019) 41 (2014) 1280 63 70 92 132 672 1750 1880 4340 5480
2020-08-05 20:45 13.37 3170 6050 (2019) 41 (2014) 1280 63 70 92 132 672 1750 1880 4340 5480
2020-08-05 19:45 14.51 3940 6050 (2019) 41 (2014) 1280 63 70 92 132 672 1750 1880 4340 5480
2020-08-05 18:45 15.30 4520 6050 (2019) 41 (2014) 1280 63 70 92 132 672 1750 1880 4340 5480
2020-08-05 17:45 14.30 3790 6050 (2019) 41 (2014) 1280 63 70 92 132 672 1750 1880 4340 5480
2020-08-05 16:45 11.75 2200 6050 (2019) 41 (2014) 1280 63 70 92 132 672 1750 1880 4340 5480
2020-08-05 15:45 7.33 431 6050 (2019) 41 (2014) 1280 63 70 92 132 672 1750 1880 4340 5480
2020-08-05 14:45 6.38 195 6050 (2019) 41 (2014) 1280 63 70 92 132 672 1750 1880 4340 5480
2020-08-05 13:45 6.40 200 6050 (2019) 41 (2014) 1280 63 70 92 132 672 1750 1880 4340 5480
2020-08-05 12:45 6.42 205 6050 (2019) 41 (2014) 1280 63 70 92 132 672 1750 1880 4340 5480
2020-08-05 11:45 6.45 212 6050 (2019) 41 (2014) 1280 63 70 92 132 672 1750 1880 4340 5480
2020-08-05 10:45 6.48 219 6050 (2019) 41 (2014) 1280 63 70 92 132 672 1750 1880 4340 5480
2020-08-05 09:45 6.54 233 6050 (2019) 41 (2014) 1280 63 70 92 132 672 1750 1880 4340 5480
2020-08-05 08:45 6.61 249 6050 (2019) 41 (2014) 1280 63 70 92 132 672 1750 1880 4340 5480
2020-08-05 07:45 6.70 271 6050 (2019) 41 (2014) 1280 63 70 92 132 672 1750 1880 4340 5480
2020-08-05 06:45 6.84 308 6050 (2019) 41 (2014) 1280 63 70 92 132 672 1750 1880 4340 5480
2020-08-05 05:45 7.03 355 6050 (2019) 41 (2014) 1280 63 70 92 132 672 1750 1880 4340 5480
2020-08-05 04:45 7.29 421 6050 (2019) 41 (2014) 1280 63 70 92 132 672 1750 1880 4340 5480
2020-08-05 03:45 7.62 511 6050 (2019) 41 (2014) 1280 63 70 92 132 672 1750 1880 4340 5480
2020-08-05 02:45 8.04 634 6050 (2019) 41 (2014) 1280 63 70 92 132 672 1750 1880 4340 5480
2020-08-05 01:45 8.55 799 6050 (2019) 41 (2014) 1280 63 70 92 132 672 1750 1880 4340 5480
2020-08-05 00:45 9.17 1020 6050 (2019) 41 (2014) 1280 63 70 92 132 672 1750 1880 4340 5480
2020-08-04 23:45 9.89 1300 6050 (2019) 42 (2014) 1380 52 64 96 196 947 1880 2190 3720 5580
2020-08-04 22:45 10.72 1670 6050 (2019) 42 (2014) 1380 52 64 96 196 947 1880 2190 3720 5580
2020-08-04 21:45 11.69 2160 6050 (2019) 42 (2014) 1380 52 64 96 196 947 1880 2190 3720 5580
2020-08-04 20:45 12.72 2760 6050 (2019) 42 (2014) 1380 52 64 96 196 947 1880 2190 3720 5580
2020-08-04 19:45 13.71 3390 6050 (2019) 42 (2014) 1380 52 64 96 196 947 1880 2190 3720 5580
2020-08-04 18:45 14.12 3670 6050 (2019) 42 (2014) 1380 52 64 96 196 947 1880 2190 3720 5580
2020-08-04 17:45 11.82 2230 6050 (2019) 42 (2014) 1380 52 64 96 196 947 1880 2190 3720 5580
2020-08-04 16:45 7.34 434 6050 (2019) 42 (2014) 1380 52 64 96 196 947 1880 2190 3720 5580
2020-08-04 15:45 6.38 195 6050 (2019) 42 (2014) 1380 52 64 96 196 947 1880 2190 3720 5580
2020-08-04 14:45 6.39 198 6050 (2019) 42 (2014) 1380 52 64 96 196 947 1880 2190 3720 5580
2020-08-04 13:45 6.40 200 6050 (2019) 42 (2014) 1380 52 64 96 196 947 1880 2190 3720 5580
2020-08-04 12:45 6.41 202 6050 (2019) 42 (2014) 1380 52 64 96 196 947 1880 2190 3720 5580
2020-08-04 11:45 6.43 207 6050 (2019) 42 (2014) 1380 52 64 96 196 947 1880 2190 3720 5580
2020-08-04 10:45 6.45 212 6050 (2019) 42 (2014) 1380 52 64 96 196 947 1880 2190 3720 5580
2020-08-04 09:45 6.48 219 6050 (2019) 42 (2014) 1380 52 64 96 196 947 1880 2190 3720 5580
2020-08-04 08:45 6.52 228 6050 (2019) 42 (2014) 1380 52 64 96 196 947 1880 2190 3720 5580
2020-08-04 07:45 6.57 240 6050 (2019) 42 (2014) 1380 52 64 96 196 947 1880 2190 3720 5580
2020-08-04 06:45 6.64 256 6050 (2019) 42 (2014) 1380 52 64 96 196 947 1880 2190 3720 5580
2020-08-04 05:45 6.75 284 6050 (2019) 42 (2014) 1380 52 64 96 196 947 1880 2190 3720 5580
2020-08-04 04:45 6.91 326 6050 (2019) 42 (2014) 1380 52 64 96 196 947 1880 2190 3720 5580
2020-08-04 03:45 7.12 377 6050 (2019) 42 (2014) 1380 52 64 96 196 947 1880 2190 3720 5580
2020-08-04 02:45 7.40 450 6050 (2019) 42 (2014) 1380 52 64 96 196 947 1880 2190 3720 5580
2020-08-04 01:45 7.76 551 6050 (2019) 42 (2014) 1380 52 64 96 196 947 1880 2190 3720 5580
2020-08-04 00:45 8.21 687 6050 (2019) 42 (2014) 1380 52 64 96 196 947 1880 2190 3720 5580
2020-08-03 23:45 8.75 867 6130 (2019) 42 (2014) 1340 52 59 77 90 1090 1690 2040 3500 5260
2020-08-03 22:45 9.38 1100 6130 (2019) 42 (2014) 1340 52 59 77 90 1090 1690 2040 3500 5260
2020-08-03 21:45 10.09 1390 6130 (2019) 42 (2014) 1340 52 59 77 90 1090 1690 2040 3500 5260
2020-08-03 20:45 10.90 1750 6130 (2019) 42 (2014) 1340 52 59 77 90 1090 1690 2040 3500 5260
2020-08-03 19:45 11.75 2200 6130 (2019) 42 (2014) 1340 52 59 77 90 1090 1690 2040 3500 5260
2020-08-03 18:45 12.44 2590 6130 (2019) 42 (2014) 1340 52 59 77 90 1090 1690 2040 3500 5260
2020-08-03 17:45 11.56 2090 6130 (2019) 42 (2014) 1340 52 59 77 90 1090 1690 2040 3500 5260
2020-08-03 16:45 7.24 408 6130 (2019) 42 (2014) 1340 52 59 77 90 1090 1690 2040 3500 5260
2020-08-03 15:45 6.38 195 6130 (2019) 42 (2014) 1340 52 59 77 90 1090 1690 2040 3500 5260
2020-08-03 14:45 6.39 198 6130 (2019) 42 (2014) 1340 52 59 77 90 1090 1690 2040 3500 5260
2020-08-03 13:45 6.40 200 6130 (2019) 42 (2014) 1340 52 59 77 90 1090 1690 2040 3500 5260
2020-08-03 12:45 6.41 202 6130 (2019) 42 (2014) 1340 52 59 77 90 1090 1690 2040 3500 5260
2020-08-03 11:45 6.41 202 6130 (2019) 42 (2014) 1340 52 59 77 90 1090 1690 2040 3500 5260
2020-08-03 10:45 6.42 205 6130 (2019) 42 (2014) 1340 52 59 77 90 1090 1690 2040 3500 5260
2020-08-03 09:45 6.42 205 6130 (2019) 42 (2014) 1340 52 59 77 90 1090 1690 2040 3500 5260
2020-08-03 08:45 6.42 205 6130 (2019) 42 (2014) 1340 52 59 77 90 1090 1690 2040 3500 5260
2020-08-03 07:45 6.42 205 6130 (2019) 42 (2014) 1340 52 59 77 90 1090 1690 2040 3500 5260
2020-08-03 06:45 6.41 202 6130 (2019) 42 (2014) 1340 52 59 77 90 1090 1690 2040 3500 5260
2020-08-03 05:45 6.41 202 6130 (2019) 42 (2014) 1340 52 59 77 90 1090 1690 2040 3500 5260
2020-08-03 04:45 6.41 202 6130 (2019) 42 (2014) 1340 52 59 77 90 1090 1690 2040 3500 5260
2020-08-03 03:45 6.41 202 6130 (2019) 42 (2014) 1340 52 59 77 90 1090 1690 2040 3500 5260
2020-08-03 02:45 6.40 200 6130 (2019) 42 (2014) 1340 52 59 77 90 1090 1690 2040 3500 5260
2020-08-03 01:45 6.40 200 6130 (2019) 42 (2014) 1340 52 59 77 90 1090 1690 2040 3500 5260
2020-08-03 00:45 6.40 200 6130 (2019) 42 (2014) 1340 52 59 77 90 1090 1690 2040 3500 5260

A total of 82 rows are displayed for years 1974 through 2019.